カタログに戻る

CBERS 1 DEB

LostSSO
NORAD 32067·DEBRIS·🇧🇷 Brazil🇨🇳 China

打ち上げ Oct 14, 1999 から Taiyuan Satellite Launch Center

Loading…

次のパス (今後24時間)

TLE

古いSource: Space-Track

元期: Jun 3, 2014, 03:05 UTC

1 32067U 99057QF  14154.12860017  .00000137  00000-0  53917-4 0  9998
2 32067  98.1628 113.6504 0034846 358.7697  63.5312 14.42165538361474

AllMySatでCBERS 1 DEBをリアルタイム追跡

Download on the App Store